Torna al catalogo

STARLINK-35097

AttivoComunicazioniSSO
NORAD 65393·PAYLOAD·🇺🇸 United States

Lanciato Aug 30, 2025 da Vandenberg Space Force Base

Loading…

Prossimi Passaggi (prossime 24 ore)

TLE

AggiornatoSource: CelesTrak SupGP

Epoca: Sep 14, 2026, 21:09 UTC

1 65393C 25191Q   26257.88173611 -.00018109  00000+0 -56228-3 0  2574
2 65393  97.2842 124.0342 0001762  90.9309 168.9513 15.33440131    11

Traccia STARLINK-35097 in tempo reale con AllMySat

Download on the App Store